timestamp,wind_dir_avg,wind_spd_avg,wind_spd_max_dir,wind_spd_gust,battery_voltage,lat,long
2023-04-02 00:04:00+00:00,171.0,5.88,170.0,6.41,12.33,47.59359,-54.27349
2023-04-02 00:14:00+00:00,168.0,6.51,177.0,7.85,12.25,47.59359,-54.27349
2023-04-02 00:24:00+00:00,163.0,5.87,151.0,6.59,12.25,47.59359,-54.27349
2023-04-02 00:34:00+00:00,169.0,6.57,159.0,8.05,12.25,47.59359,-54.27349
2023-04-02 00:44:00+00:00,169.0,8.12,158.0,9.26,12.25,47.59359,-54.27349
2023-04-02 00:54:00+00:00,168.0,7.92,159.0,9.36,12.25,47.59359,-54.27349
2023-04-02 01:04:00+00:00,170.0,7.51,163.0,9.0,12.25,47.59359,-54.27349
2023-04-02 01:14:00+00:00,163.0,8.79,166.0,9.9,12.25,47.59359,-54.27349
2023-04-02 01:24:00+00:00,161.0,8.11,157.0,9.8,12.25,47.59359,-54.27349
2023-04-02 01:34:00+00:00,162.0,8.55,163.0,9.51,12.25,47.59359,-54.27349
2023-04-02 01:44:00+00:00,152.0,10.53,146.0,12.4,12.25,47.59359,-54.27349
2023-04-02 01:54:00+00:00,160.0,9.03,163.0,9.77,12.25,47.59359,-54.27349
2023-04-02 02:04:00+00:00,145.0,8.39,128.0,10.96,12.25,47.59359,-54.27349
2023-04-02 02:14:01+00:00,149.0,6.81,134.0,9.18,12.25,47.59359,-54.27349
2023-04-02 02:24:01+00:00,144.0,7.42,127.0,10.74,12.25,47.59359,-54.27349
2023-04-02 02:34:01+00:00,146.0,9.62,134.0,11.9,12.25,47.59359,-54.27349
2023-04-02 02:44:01+00:00,150.0,8.35,140.0,10.19,12.25,47.59359,-54.27349
2023-04-02 02:54:01+00:00,140.0,7.76,127.0,10.62,12.25,47.59359,-54.27349
2023-04-02 03:04:01+00:00,147.0,7.0,128.0,9.88,12.25,47.59359,-54.27349
2023-04-02 03:14:01+00:00,141.0,7.67,134.0,11.26,12.17,47.59359,-54.27349
2023-04-02 03:24:01+00:00,146.0,6.73,128.0,8.5,12.17,47.59359,-54.27349
2023-04-02 03:34:01+00:00,148.0,6.46,132.0,9.06,12.17,47.59359,-54.27349
2023-04-02 03:44:01+00:00,151.0,6.59,153.0,9.47,12.17,47.59359,-54.27349
2023-04-02 03:54:01+00:00,141.0,7.64,120.0,10.47,12.17,47.59359,-54.27349
2023-04-02 04:04:01+00:00,130.0,10.93,124.0,12.9,12.17,47.59359,-54.27349
2023-04-02 04:14:00+00:00,128.0,11.94,130.0,13.89,12.17,47.59359,-54.27349
2023-04-02 04:24:00+00:00,135.0,13.52,146.0,15.16,12.17,47.59359,-54.27349
2023-04-02 04:34:00+00:00,128.0,12.51,132.0,13.55,12.17,47.59359,-54.27349
2023-04-02 04:44:00+00:00,122.0,11.15,127.0,13.29,12.17,47.59359,-54.27349
2023-04-02 04:54:00+00:00,121.0,11.12,123.0,12.34,12.17,47.59359,-54.27349
2023-04-02 05:04:00+00:00,131.0,8.12,119.0,11.0,12.17,47.59359,-54.27349
2023-04-02 05:14:00+00:00,121.0,8.45,116.0,11.35,12.17,47.59359,-54.27349
2023-04-02 05:24:00+00:00,124.0,6.43,115.0,10.33,12.17,47.59359,-54.27349
2023-04-02 05:34:00+00:00,124.0,8.81,123.0,11.39,12.17,47.59359,-54.27349
2023-04-02 05:44:00+00:00,124.0,11.79,128.0,13.87,12.17,47.59359,-54.27349
2023-04-02 05:54:00+00:00,124.0,11.0,129.0,12.48,12.17,47.59359,-54.27349
2023-04-02 06:04:00+00:00,134.0,9.64,126.0,12.86,12.17,47.59359,-54.27349
2023-04-02 06:14:00+00:00,130.0,9.63,124.0,12.6,12.17,47.59359,-54.27349
2023-04-02 06:24:00+00:00,121.0,11.36,126.0,12.97,12.17,47.59359,-54.27349
2023-04-02 06:34:00+00:00,138.0,12.13,136.0,14.66,12.17,47.59359,-54.27349
2023-04-02 06:44:00+00:00,147.0,7.41,132.0,11.83,12.17,47.59359,-54.27349
2023-04-02 06:54:00+00:00,147.0,9.39,130.0,12.62,12.17,47.59359,-54.27349
2023-04-02 07:04:00+00:00,136.0,15.26,122.0,19.76,12.17,47.59359,-54.27349
2023-04-02 07:14:00+00:00,216.0,3.15,235.0,4.74,12.09,47.59359,-54.27349
2023-04-02 07:24:00+00:00,140.0,6.63,131.0,9.04,12.09,47.59359,-54.27349
2023-04-02 07:34:00+00:00,131.0,13.43,133.0,14.84,12.09,47.59359,-54.27349
2023-04-02 07:44:00+00:00,160.0,9.42,161.0,10.8,12.09,47.59359,-54.27349
2023-04-02 07:54:00+00:00,165.0,10.22,160.0,12.55,12.09,47.59359,-54.27349
2023-04-02 08:04:00+00:00,158.0,9.27,158.0,11.6,12.09,47.59359,-54.27349
2023-04-02 08:14:00+00:00,164.0,8.3,165.0,10.04,12.09,47.59359,-54.27349
2023-04-02 08:24:00+00:00,171.0,7.64,173.0,9.2,12.09,47.59359,-54.27349
2023-04-02 08:34:00+00:00,180.0,6.72,178.0,7.42,12.09,47.59359,-54.27349
2023-04-02 08:44:00+00:00,185.0,7.52,185.0,8.57,12.09,47.59359,-54.27349
2023-04-02 08:54:00+00:00,209.0,9.2,207.0,11.1,12.09,47.59359,-54.27349
2023-04-02 09:04:00+00:00,221.0,8.94,218.0,10.21,12.09,47.59359,-54.27349
2023-04-02 09:14:00+00:00,223.0,9.11,223.0,10.15,12.09,47.59359,-54.27349
2023-04-02 09:24:00+00:00,217.0,7.33,218.0,8.48,12.09,47.59359,-54.27349
2023-04-02 09:34:00+00:00,214.0,9.37,210.0,9.99,12.09,47.59359,-54.27349
2023-04-02 09:44:00+00:00,208.0,9.38,207.0,10.6,12.09,47.59359,-54.27349
2023-04-02 09:54:00+00:00,209.0,9.48,210.0,10.4,12.09,47.59359,-54.27349
2023-04-02 10:04:00+00:00,213.0,11.01,216.0,12.22,12.09,47.59359,-54.27349
2023-04-02 10:14:00+00:00,215.0,11.35,214.0,13.15,12.09,47.59359,-54.27349
2023-04-02 10:24:00+00:00,213.0,10.45,216.0,11.9,12.09,47.59359,-54.27349
2023-04-02 10:34:00+00:00,220.0,8.71,217.0,10.06,12.09,47.59359,-54.27349
2023-04-02 10:44:00+00:00,217.0,9.77,218.0,10.98,12.09,47.59359,-54.27349
2023-04-02 10:54:00+00:00,210.0,9.83,211.0,11.02,12.09,47.59359,-54.27349
2023-04-02 11:04:00+00:00,216.0,10.84,216.0,11.89,12.09,47.59359,-54.27349
2023-04-02 11:14:00+00:00,217.0,10.81,215.0,12.3,12.57,47.59359,-54.27349
2023-04-02 11:24:00+00:00,215.0,10.96,217.0,12.16,12.57,47.59359,-54.27349
2023-04-02 11:34:00+00:00,215.0,10.62,217.0,12.62,12.57,47.59359,-54.27349
2023-04-02 11:44:00+00:00,214.0,9.3,217.0,10.64,12.57,47.59359,-54.27349
2023-04-02 11:54:00+00:00,215.0,8.81,215.0,9.73,12.57,47.59359,-54.27349
2023-04-02 12:04:00+00:00,227.0,7.72,216.0,9.28,12.57,47.59359,-54.27349
2023-04-02 12:14:00+00:00,223.0,7.95,230.0,9.53,13.29,47.59359,-54.27349
2023-04-02 12:24:00+00:00,217.0,7.61,216.0,9.02,13.29,47.59359,-54.27349
2023-04-02 12:34:00+00:00,223.0,7.27,221.0,8.87,13.29,47.59359,-54.27349
2023-04-02 12:44:00+00:00,229.0,8.3,229.0,9.72,13.29,47.59359,-54.27349
2023-04-02 12:54:00+00:00,228.0,9.19,230.0,11.23,13.29,47.59359,-54.27349
2023-04-02 13:04:00+00:00,233.0,8.84,231.0,9.92,13.29,47.59359,-54.27349
2023-04-02 13:14:00+00:00,236.0,9.41,232.0,10.74,13.84,47.59359,-54.27349
2023-04-02 13:24:00+00:00,237.0,9.28,238.0,10.67,13.84,47.59359,-54.27349
2023-04-02 13:34:00+00:00,231.0,8.75,233.0,10.52,13.84,47.59359,-54.27349
2023-04-02 13:44:00+00:00,231.0,7.26,227.0,9.07,13.84,47.59359,-54.27349
2023-04-02 13:54:00+00:00,224.0,6.59,223.0,7.11,13.84,47.59359,-54.27349
2023-04-02 14:04:00+00:00,218.0,7.49,220.0,8.47,13.84,47.59359,-54.27349
2023-04-02 14:14:00+00:00,220.0,6.22,224.0,7.16,13.68,47.59359,-54.27349
2023-04-02 14:24:00+00:00,227.0,7.73,226.0,9.22,13.68,47.59359,-54.27349
2023-04-02 14:34:00+00:00,226.0,7.82,225.0,9.16,13.68,47.59359,-54.27349
2023-04-02 14:44:00+00:00,214.0,5.46,219.0,7.0,13.68,47.59359,-54.27349
2023-04-02 14:54:00+00:00,203.0,6.9,208.0,7.93,13.68,47.59359,-54.27349
2023-04-02 15:04:00+00:00,217.0,7.04,217.0,7.68,13.68,47.59359,-54.27349
2023-04-02 15:14:01+00:00,229.0,6.66,223.0,7.7,13.68,47.59359,-54.27349
2023-04-02 15:24:01+00:00,236.0,5.87,236.0,6.47,13.68,47.59359,-54.27349
2023-04-02 15:34:01+00:00,225.0,5.51,221.0,6.68,13.68,47.59359,-54.27349
2023-04-02 15:44:01+00:00,204.0,6.36,204.0,7.47,13.68,47.59359,-54.27349
2023-04-02 15:54:01+00:00,184.0,6.7,201.0,7.76,13.68,47.59359,-54.27349
2023-04-02 16:04:01+00:00,214.0,6.81,214.0,8.0,13.68,47.59359,-54.27349
2023-04-02 16:14:00+00:00,218.0,6.76,216.0,7.69,13.6,47.59359,-54.27349
2023-04-02 16:24:00+00:00,210.0,8.22,209.0,9.56,13.6,47.59359,-54.27349
2023-04-02 16:34:00+00:00,211.0,7.98,212.0,8.78,13.6,47.59359,-54.27349
2023-04-02 16:44:00+00:00,212.0,9.69,210.0,10.45,13.6,47.59359,-54.27349
2023-04-02 16:54:00+00:00,207.0,10.65,205.0,12.59,13.6,47.59359,-54.27349
2023-04-02 17:04:00+00:00,211.0,9.18,212.0,10.55,13.6,47.59359,-54.27349
2023-04-02 17:14:00+00:00,213.0,8.82,210.0,10.29,13.68,47.59359,-54.27349
2023-04-02 17:24:00+00:00,213.0,10.22,215.0,11.07,13.68,47.59359,-54.27349
2023-04-02 17:34:00+00:00,210.0,10.19,207.0,11.5,13.68,47.59359,-54.27349
2023-04-02 17:44:00+00:00,210.0,9.77,212.0,11.17,13.68,47.59359,-54.27349
2023-04-02 17:54:00+00:00,212.0,10.64,212.0,11.47,13.68,47.59359,-54.27349
2023-04-02 18:04:00+00:00,213.0,10.12,211.0,11.24,13.68,47.59359,-54.27349
2023-04-02 18:14:00+00:00,212.0,7.72,210.0,8.91,13.76,47.59359,-54.27349
2023-04-02 18:24:00+00:00,212.0,6.93,213.0,7.86,13.76,47.59359,-54.27349
2023-04-02 18:34:00+00:00,205.0,7.0,209.0,8.67,13.76,47.59359,-54.27349
2023-04-02 18:44:00+00:00,169.0,6.76,170.0,7.22,13.76,47.59359,-54.27349
2023-04-02 18:54:00+00:00,161.0,6.72,162.0,7.26,13.76,47.59359,-54.27349
2023-04-02 19:04:00+00:00,161.0,5.67,159.0,6.19,13.76,47.59359,-54.27349
2023-04-02 19:14:00+00:00,163.0,5.39,165.0,5.82,13.53,47.59359,-54.27349
2023-04-02 19:24:00+00:00,203.0,4.73,215.0,5.73,13.53,47.59359,-54.27349
2023-04-02 19:34:00+00:00,174.0,3.07,220.0,4.46,13.53,47.59359,-54.27349
2023-04-02 19:44:00+00:00,206.0,4.48,221.0,5.47,13.53,47.59359,-54.27349
2023-04-02 19:54:00+00:00,170.0,3.59,219.0,4.91,13.53,47.59359,-54.27349
2023-04-02 20:04:00+00:00,163.0,4.1,157.0,4.59,13.53,47.59359,-54.27349
2023-04-02 20:14:00+00:00,163.0,5.64,164.0,6.08,13.05,47.59359,-54.27349
2023-04-02 20:24:00+00:00,161.0,4.35,159.0,5.02,13.05,47.59359,-54.27349
2023-04-02 20:34:00+00:00,152.0,5.44,155.0,5.85,13.05,47.59359,-54.27349
2023-04-02 20:44:00+00:00,159.0,7.0,161.0,7.56,13.05,47.59359,-54.27349
2023-04-02 20:54:00+00:00,163.0,6.44,164.0,7.03,13.05,47.59359,-54.27349
2023-04-02 21:04:00+00:00,166.0,6.52,168.0,7.19,13.05,47.59359,-54.27349
2023-04-02 21:14:00+00:00,161.0,6.97,165.0,7.51,12.81,47.59359,-54.27349
2023-04-02 21:24:00+00:00,167.0,6.15,171.0,6.87,12.81,47.59359,-54.27349
2023-04-02 21:34:00+00:00,179.0,6.12,207.0,7.21,12.81,47.59359,-54.27349
2023-04-02 21:44:00+00:00,161.0,6.14,162.0,6.87,12.81,47.59359,-54.27349
2023-04-02 21:54:00+00:00,188.0,6.0,208.0,7.37,12.81,47.59359,-54.27349
2023-04-02 22:04:00+00:00,217.0,7.13,217.0,7.98,12.81,47.59359,-54.27349
2023-04-02 22:14:00+00:00,228.0,7.43,224.0,9.06,12.41,47.59359,-54.27349
2023-04-02 22:24:00+00:00,227.0,6.32,224.0,7.4,12.41,47.59359,-54.27349
2023-04-02 22:34:00+00:00,241.0,7.97,241.0,9.15,12.41,47.59359,-54.27349
2023-04-02 22:44:00+00:00,233.0,7.9,234.0,8.54,12.41,47.59359,-54.27349
2023-04-02 22:54:00+00:00,233.0,8.27,234.0,8.9,12.41,47.59359,-54.27349
2023-04-02 23:04:00+00:00,259.0,8.2,254.0,9.26,12.41,47.59359,-54.27349
2023-04-02 23:14:00+00:00,260.0,7.49,260.0,8.92,12.33,47.59359,-54.27349
2023-04-02 23:24:00+00:00,252.0,7.5,244.0,8.54,12.33,47.59359,-54.27349
2023-04-02 23:34:00+00:00,266.0,7.55,264.0,9.98,12.33,47.59359,-54.27349
2023-04-02 23:44:00+00:00,266.0,6.21,263.0,7.37,12.33,47.59359,-54.27349
2023-04-02 23:54:00+00:00,267.0,8.23,268.0,9.6,12.33,47.59359,-54.27349
